• In Germany
  • List of Countries
  • For 7 days
  • Water Temperature
  • Satellite Maps
  • Weather Map
  • Weather Widgets
  • user-avatar
    Login

    Hourly Weather Bregenz

    Today, 19 August, Saturday

    Time Temperature Precipitation Wind Pressure Humidity
    00:00 +13°C° 3.2 mm 2 mps 649 mmHg 98%
    01:00 +13°C° 0 mm 2 mps 649 mmHg 98%
    02:00 +13°C° 1.9 mm 2 mps 648 mmHg 98%
    03:00 +12°C° 1.9 mm 2 mps 648 mmHg 98%
    04:00 +12°C° 1.9 mm 2 mps 648 mmHg 97%
    05:00 +12°C° 0.8 mm 2 mps 648 mmHg 97%
    06:00 +10°C° 0.8 mm 2 mps 648 mmHg 97%
    07:00 +10°C° 0 mm 2 mps 648 mmHg 97%
    08:00 +12°C° 0.1 mm 2 mps 648 mmHg 94%
    09:00 +12°C° 0.1 mm 2 mps 649 mmHg 91%
    10:00 +13°C° 0.1 mm 2 mps 649 mmHg 88%
    11:00 +13°C° 0.2 mm 2 mps 649 mmHg 83%
    12:00 +14°C° 0.2 mm 2 mps 649 mmHg 79%
    13:00 +14°C° 0 mm 2 mps 649 mmHg 78%
    14:00 +14°C° 0.3 mm 2 mps 649 mmHg 77%
    15:00 +14°C° 0.3 mm 2 mps 649 mmHg 77%
    16:00 +15°C° 0.3 mm 2 mps 649 mmHg 77%
    17:00 +13°C° 0.3 mm 2 mps 649 mmHg 81%
    18:00 +12°C° 0.3 mm 1 mps 649 mmHg 86%
    19:00 +11°C° 0.3 mm 1 mps 649 mmHg 90%
    20:00 +10°C° 0.2 mm 1 mps 649 mmHg 91%
    21:00 +10°C° 0.2 mm 1 mps 649 mmHg 93%
    22:00 +9°C° 0.2 mm 1 mps 649 mmHg 94%
    23:00 +9°C° 0.1 mm 1 mps 650 mmHg 94%

    Tomorrow, 20 August, Sunday

    Time Temperature Precipitation Wind Pressure Humidity
    00:00 +8°C° 0.1 mm 1 mps 650 mmHg 94%
    01:00 +8°C° 0.1 mm 1 mps 650 mmHg 94%
    02:00 +8°C° 0.1 mm 1 mps 650 mmHg 94%
    03:00 +8°C° 0.1 mm 1 mps 650 mmHg 94%
    04:00 +7°C° 0.1 mm 1 mps 649 mmHg 94%
    05:00 +8°C° 0.1 mm 1 mps 650 mmHg 93%
    06:00 +8°C° 0.1 mm 1 mps 650 mmHg 93%
    07:00 +9°C° 0.1 mm 1 mps 650 mmHg 92%
    08:00 +10°C° 0.1 mm 1 mps 651 mmHg 84%
    09:00 +11°C° 0.1 mm 1 mps 651 mmHg 77%
    10:00 +13°C° 0.1 mm 1 mps 652 mmHg 69%
    11:00 +14°C° 0 mm 1 mps 652 mmHg 63%
    12:00 +15°C° 0 mm 2 mps 652 mmHg 57%
    13:00 +16°C° 0 mm 2 mps 652 mmHg 51%
    14:00 +16°C° 0 mm 2 mps 652 mmHg 52%
    15:00 +16°C° 0 mm 2 mps 652 mmHg 52%
    16:00 +16°C° 0 mm 2 mps 652 mmHg 52%
    17:00 +14°C° 0 mm 2 mps 652 mmHg 61%
    18:00 +12°C° 0 mm 1 mps 651 mmHg 69%
    19:00 +11°C° 0 mm 1 mps 651 mmHg 78%
    20:00 +9°C° 0 mm 1 mps 651 mmHg 81%
    21:00 +8°C° 0 mm 1 mps 651 mmHg 84%
    22:00 +7°C° 0 mm 1 mps 651 mmHg 88%
    23:00 +7°C° 0 mm 1 mps 651 mmHg 88%

    Day after tomorrow, 21 August, Monday

    Time Temperature Precipitation Wind Pressure Humidity
    00:00 +6°C° 0 mm 1 mps 651 mmHg 88%
    01:00 +6°C° 0 mm 1 mps 651 mmHg 88%
    02:00 +6°C° 0 mm 1 mps 650 mmHg 87%
    03:00 +6°C° 0 mm 1 mps 650 mmHg 86%
    04:00 +5°C° 0 mm 1 mps 650 mmHg 85%
    05:00 +6°C° 0 mm 1 mps 650 mmHg 81%
    06:00 +7°C° 0 mm 1 mps 651 mmHg 77%
    07:00 +8°C° 0 mm 1 mps 651 mmHg 74%
    08:00 +11°C° 0 mm 1 mps 651 mmHg 66%
    09:00 +13°C° 0 mm 1 mps 652 mmHg 58%
    10:00 +15°C° 0 mm 1 mps 652 mmHg 51%
    11:00 +16°C° 0 mm 1 mps 652 mmHg 48%
    12:00 +17°C° 0 mm 2 mps 652 mmHg 46%
    13:00 +18°C° 0 mm 2 mps 652 mmHg 43%
    14:00 +17°C° 0 mm 2 mps 652 mmHg 45%
    15:00 +17°C° 0 mm 2 mps 652 mmHg 47%
    16:00 +17°C° 0 mm 2 mps 652 mmHg 49%
    17:00 +15°C° 0 mm 2 mps 651 mmHg 59%
    18:00 +13°C° 0 mm 1 mps 651 mmHg 68%
    19:00 +12°C° 0 mm 1 mps 651 mmHg 78%
    20:00 +11°C° 0 mm 1 mps 651 mmHg 81%
    21:00 +10°C° 0 mm 1 mps 650 mmHg 84%
    22:00 +9°C° 0 mm 1 mps 650 mmHg 86%
    23:00 +8°C° 0 mm 1 mps 650 mmHg 85%

    22 August, Tuesday

    Time Temperature Precipitation Wind Pressure Humidity
    00:00 +8°C° 0 mm 1 mps 650 mmHg 83%
    01:00 +8°C° 0 mm 1 mps 650 mmHg 82%
    02:00 +8°C° 0 mm 1 mps 650 mmHg 79%
    03:00 +7°C° 0 mm 1 mps 649 mmHg 77%
    04:00 +7°C° 0 mm 1 mps 649 mmHg 74%
    05:00 +8°C° 0 mm 1 mps 649 mmHg 72%
    06:00 +9°C° 0 mm 1 mps 650 mmHg 70%
    07:00 +10°C° 0 mm 1 mps 650 mmHg 68%
    08:00 +13°C° 0 mm 1 mps 651 mmHg 61%
    09:00 +15°C° 0 mm 1 mps 651 mmHg 55%
    10:00 +19°C° 0 mm 1 mps 652 mmHg 49%
    11:00 +19°C° 0 mm 1 mps 652 mmHg 48%
    12:00 +20°C° 0 mm 1 mps 652 mmHg 46%
    13:00 +20°C° 0 mm 2 mps 652 mmHg 45%
    14:00 +20°C° 0 mm 2 mps 651 mmHg 47%
    15:00 +20°C° 0 mm 2 mps 651 mmHg 49%
    16:00 +20°C° 0 mm 2 mps 651 mmHg 51%
    17:00 +18°C° 0 mm 2 mps 650 mmHg 61%
    18:00 +16°C° 0 mm 1 mps 650 mmHg 72%
    19:00 +14°C° 0 mm 1 mps 649 mmHg 82%
    20:00 +13°C° 0 mm 1 mps 649 mmHg 84%
    21:00 +12°C° 0 mm 1 mps 649 mmHg 86%
    22:00 +11°C° 0 mm 1 mps 649 mmHg 88%
    23:00 +11°C° 0 mm 1 mps 649 mmHg 87%

    23 August, Wednesday

    Time Temperature Precipitation Wind Pressure Humidity
    00:00 +10°C° 0 mm 1 mps 649 mmHg 85%
    01:00 +10°C° 0 mm 1 mps 648 mmHg 83%
    02:00 +10°C° 0 mm 1 mps 648 mmHg 81%
    03:00 +10°C° 0 mm 1 mps 648 mmHg 79%
    04:00 +10°C° 0 mm 1 mps 648 mmHg 77%
    05:00 +11°C° 0 mm 1 mps 648 mmHg 75%
    06:00 +12°C° 0 mm 1 mps 649 mmHg 73%
    07:00 +13°C° 0 mm 1 mps 649 mmHg 70%
    08:00 +15°C° 0 mm 1 mps 650 mmHg 62%
    09:00 +19°C° 0 mm 1 mps 650 mmHg 54%
    10:00 +22°C° 0 mm 1 mps 651 mmHg 46%
    11:00 +23°C° 0 mm 1 mps 651 mmHg 44%
    12:00 +24°C° 0 mm 1 mps 651 mmHg 41%
    13:00 +25°C° 0 mm 1 mps 651 mmHg 38%
    14:00 +25°C° 0 mm 1 mps 651 mmHg 39%
    15:00 +24°C° 0 mm 1 mps 651 mmHg 40%
    16:00 +24°C° 0 mm 1 mps 651 mmHg 41%
    17:00 +22°C° 0 mm 1 mps 650 mmHg 51%
    18:00 +20°C° 0 mm 1 mps 650 mmHg 61%
    19:00 +16°C° 0 mm 1 mps 649 mmHg 71%
    20:00 +16°C° 0 mm 1 mps 649 mmHg 71%
    21:00 +15°C° 0 mm 1 mps 650 mmHg 71%
    22:00 +14°C° 0 mm 2 mps 650 mmHg 71%
    23:00 +14°C° 0 mm 2 mps 649 mmHg 71%

    24 August, Thursday

    Time Temperature Precipitation Wind Pressure Humidity
    00:00 +14°C° 0 mm 2 mps 649 mmHg 70%
    01:00 +14°C° 0 mm 2 mps 649 mmHg 70%
    02:00 +14°C° 0 mm 2 mps 649 mmHg 71%
    03:00 +13°C° 0 mm 2 mps 649 mmHg 72%
    04:00 +13°C° 0 mm 2 mps 649 mmHg 72%
    05:00 +14°C° 0 mm 2 mps 649 mmHg 73%
    06:00 +14°C° 0 mm 2 mps 649 mmHg 74%
    07:00 +15°C° 0 mm 2 mps 650 mmHg 75%
    08:00 +16°C° 0.1 mm 1 mps 650 mmHg 71%
    09:00 +19°C° 0.1 mm 1 mps 651 mmHg 68%
    10:00 +20°C° 0.1 mm 1 mps 651 mmHg 64%
    11:00 +21°C° 0.1 mm 1 mps 651 mmHg 61%
    12:00 +23°C° 0.1 mm 1 mps 651 mmHg 58%
    13:00 +24°C° 0.1 mm 1 mps 652 mmHg 54%
    14:00 +24°C° 0.2 mm 1 mps 651 mmHg 55%
    15:00 +24°C° 0.2 mm 1 mps 651 mmHg 55%
    16:00 +24°C° 0.2 mm 2 mps 651 mmHg 55%
    17:00 +22°C° 0.3 mm 1 mps 651 mmHg 64%
    18:00 +20°C° 0.3 mm 1 mps 650 mmHg 72%
    19:00 +18°C° 0.3 mm 1 mps 650 mmHg 81%
    20:00 +16°C° 0.2 mm 1 mps 650 mmHg 82%
    21:00 +15°C° 0.2 mm 1 mps 650 mmHg 83%
    22:00 +14°C° 0.2 mm 2 mps 650 mmHg 84%
    23:00 +14°C° 0.1 mm 2 mps 650 mmHg 84%
    Show more